Location: Newark
(42.9858°N, 0.6717°E)
Time: 12:45:28
(UTC+00:00)

S-56A Canister/Altair - Visible Passes

Search period start: 15 November 2019 00:00
Search period end: 25 November 2019 00:00
Orbit: 634 x 2498 km, 38.9° (Epoch: 13 November)

Date Brightness Start Highest point End Pass type
(mag) Time Alt. Az. Time Alt. Az. Time Alt. Az.
15 Nov 9.3 17:35:08 10° SW 17:42:55 35° SSE 17:47:23 15° ESE visible
15 Nov 8.9 19:39:51 10° WSW 19:44:49 40° SW 19:44:49 40° SW visible
16 Nov 9.5 17:01:54 10° SW 17:10:09 34° SSE 17:15:58 10° E visible
16 Nov 8.2 19:06:36 10° WSW 19:13:56 56° S 19:13:56 56° S visible
17 Nov 8.3 18:33:17 10° WSW 18:41:24 56° S 18:43:03 43° ESE visible
17 Nov 10.3 20:38:50 10° W 20:40:28 17° W 20:40:28 17° W visible
18 Nov 8.7 17:59:54 10° WSW 18:08:40 55° S 18:12:08 27° ESE visible
18 Nov 9.5 20:05:38 10° W 20:09:34 31° WSW 20:09:34 31° WSW visible
19 Nov 8.9 17:26:27 10° WSW 17:35:52 54° SSE 17:41:14 15° E visible
19 Nov 8.6 19:32:21 10° W 19:38:40 51° SW 19:38:40 51° SW visible
20 Nov 9.2 16:52:57 10° WSW 17:03:02 52° SSE 17:09:43 10° E visible
20 Nov 8.1 18:58:59 10° W 19:07:11 63° S 19:07:45 60° SSE visible
20 Nov 10.7 21:04:53 10° W 21:05:11 11° W 21:05:11 11° W visible
21 Nov 8.4 18:25:30 10° W 18:34:28 65° S 18:36:52 40° ESE visible
21 Nov 10.1 20:31:38 10° W 20:34:18 21° W 20:34:18 21° W visible
22 Nov 8.7 17:51:58 10° WSW 18:01:40 66° S 18:05:59 23° ESE visible
22 Nov 9.3 19:58:18 10° W 20:03:25 35° WSW 20:03:25 35° WSW visible
23 Nov 8.9 17:18:21 10° WSW 17:28:49 66° S 17:35:07 13° E visible
23 Nov 8.6 19:24:54 10° W 19:32:33 51° SSW 19:32:33 51° SSW visible
24 Nov 9.2 16:44:41 10° WSW 16:55:53 66° S 17:03:11 10° E visible
24 Nov 8.5 18:51:24 10° W 19:00:10 57° SSW 19:01:43 47° SSE visible
24 Nov 10.6 20:58:10 10° W 20:59:09 13° W 20:59:09 13° W visible
